FW1729 Manhattan Beach NY US current weather conditions

sailwx.info

Wind from 090 at 0 knots gusting 1

Air temperature 23.9° C
Dewpoint 22.5° C

Last reported at 2020-Aug-14 07:09 UTC.
Time now 2020-Aug-14 07:41 UTC

Location: N 40°35' W 073°56'.
View on Google Maps.

See reports from other nearby stations

  
Tides and Currents Weather Stations Pressure Air Temp Water Temp Dewpoint Dewpoint Depression Visibility Wind Speed Wind Dir Waves Ship Positions
date/time (UTC)wind fromknots sea level pressurealtimeterstation pressurevisibilityair tempwater tempwave heightnotes
2020-Aug-14 07:09 090 0 gusting 1 23.9
2020-Aug-14 07:04 105 0 gusting 1 23.9
2020-Aug-14 06:59 082 23.9
2020-Aug-14 06:54 082 23.9
2020-Aug-14 06:49 074 23.9
2020-Aug-14 06:44 068 23.9
2020-Aug-14 06:39 075 23.9
2020-Aug-14 06:33 096 24.4
2020-Aug-14 06:29 084 0 gusting 2 23.9
2020-Aug-14 06:23 094 2 gusting 3 24.4
2020-Aug-14 06:19 100 1 gusting 3 24.4
2020-Aug-14 06:14 105 2 gusting 3 24.4
2020-Aug-14 06:09 101 1 gusting 2 24.4
2020-Aug-14 06:03 105 0 gusting 1 24.4
2020-Aug-14 05:57 100 0 gusting 3 24.4
2020-Aug-14 05:54 089 1 gusting 3 24.4
2020-Aug-14 05:48 063 2 gusting 3 24.4
2020-Aug-14 05:44 155 0 gusting 4 24.4
2020-Aug-14 05:39 158 0 gusting 4 24.4
2020-Aug-14 05:33 106 1 gusting 6 24.4
2020-Aug-14 05:29 120 3 gusting 6 24.4
2020-Aug-14 05:23 121 3 gusting 5 24.4
2020-Aug-14 05:19 157 1 gusting 5 24.4
2020-Aug-14 05:14 124 0 gusting 3 24.4
2020-Aug-14 05:09 132 1 gusting 2 24.4
2020-Aug-14 05:04 086 2 gusting 2 24.4
2020-Aug-14 04:59 106 1 gusting 2 24.4
2020-Aug-14 04:54 096 0 gusting 2 24.4
2020-Aug-14 04:49 096 2 gusting 2 24.4
2020-Aug-14 04:44 096 2 gusting 3 24.4
2020-Aug-14 04:38 095 2 gusting 3 24.4
2020-Aug-14 04:35 088 2 gusting 3 24.4
2020-Aug-14 04:29 107 2 gusting 3 24.4
2020-Aug-14 04:24 091 2 gusting 3 24.4
2020-Aug-14 04:19 100 2 gusting 3 25.0
2020-Aug-14 04:13 105 2 gusting 3 25.0
2020-Aug-14 04:10 094 2 gusting 3 25.0
2020-Aug-14 04:04 089 2 gusting 2 24.4
2020-Aug-14 03:59 103 1 gusting 3 24.4
2020-Aug-14 03:54 110 2 gusting 3 24.4
2020-Aug-14 03:49 105 1 gusting 2 24.4
2020-Aug-14 03:44 096 1 gusting 2 24.4
2020-Aug-14 03:39 094 1 gusting 2 24.4
2020-Aug-14 03:34 088 0 gusting 1 24.4
2020-Aug-14 03:29 098 0 gusting 2 24.4
2020-Aug-14 03:24 101 1 gusting 1 24.4
2020-Aug-14 03:19 079 0 gusting 1 24.4
2020-Aug-14 03:14 078 24.4
2020-Aug-14 03:09 079 24.4
2020-Aug-14 03:04 085 24.4
2020-Aug-14 02:59 081 24.4
2020-Aug-14 02:54 101 1 gusting 4 24.4
2020-Aug-14 02:49 105 2 gusting 4 25.0
2020-Aug-14 02:44 086 4 gusting 4 25.0
2020-Aug-14 02:39 100 3 gusting 4 25.0
2020-Aug-14 02:34 104 1 gusting 3 25.0
2020-Aug-14 02:28 095 2 gusting 3 25.0
2020-Aug-14 02:21 106 2 gusting 2 25.0
2020-Aug-14 02:19 105 1 gusting 2 25.0
2020-Aug-14 02:14 160 25.0
2020-Aug-14 02:09 105 0 gusting 2 25.0
2020-Aug-14 02:02 146 0 gusting 2 25.0
2020-Aug-14 01:59 137 25.0
2020-Aug-14 01:54 124 0 gusting 3 25.0
2020-Aug-14 01:49 123 0 gusting 4 25.0
2020-Aug-14 01:44 161 1 gusting 4 25.0
2020-Aug-14 01:39 117 1 gusting 4 25.0
2020-Aug-14 01:34 149 0 gusting 5 25.0
2020-Aug-14 01:29 142 3 gusting 6 25.0
2020-Aug-14 01:24 124 4 gusting 5 25.0
2020-Aug-14 01:19 138 1 gusting 5 25.0
2020-Aug-14 01:13 122 1 gusting 5 25.0
2020-Aug-14 01:09 132 1 gusting 5 25.0
2020-Aug-14 01:04 140 0 gusting 4 25.0
2020-Aug-14 00:59 155 1 gusting 4 25.0
2020-Aug-14 00:54 154 0 gusting 3 25.0
2020-Aug-14 00:49 136 0 gusting 5 25.0
2020-Aug-14 00:44 131 1 gusting 6 24.4
2020-Aug-14 00:39 141 3 gusting 6 24.4
2020-Aug-14 00:29 133 0 gusting 3 25.0
2020-Aug-14 00:25 143 2 gusting 3 24.4
2020-Aug-14 00:18 145 24.4
2020-Aug-14 00:15 146 24.4
2020-Aug-14 00:10 132 0 gusting 4 24.4
2020-Aug-14 00:05 142 1 gusting 4 24.4
2020-Aug-13 23:09 129 24.4
2020-Aug-13 23:04 133 25.0
2020-Aug-13 22:59 139 25.0
2020-Aug-13 22:55 124 25.0
2020-Aug-13 22:49 135 0 gusting 4 25.0
2020-Aug-13 22:44 155 2 gusting 4 25.0
2020-Aug-13 22:38 134 0 gusting 1 25.0
2020-Aug-13 22:34 136 25.0
2020-Aug-13 22:29 135 0 gusting 1 25.0
2020-Aug-13 22:24 139 0 gusting 0 25.0
2020-Aug-13 22:19 124 25.0
2020-Aug-13 22:13 130 25.0
2020-Aug-13 22:09 124 0 gusting 3 25.0
2020-Aug-13 22:03 138 25.0
2020-Aug-13 21:58 162 25.0
2020-Aug-13 21:54 124 25.0
2020-Aug-13 21:49 124 25.0
2020-Aug-13 21:44 139 1 gusting 3 25.0
2020-Aug-13 21:39 150 1 gusting 2 25.0
2020-Aug-13 21:34 141 0 gusting 1 25.0
2020-Aug-13 21:29 142 0 gusting 2 25.0
2020-Aug-13 21:24 143 0 gusting 2 25.0
2020-Aug-13 21:19 143 0 gusting 2 25.0
2020-Aug-13 21:14 138 0 gusting 2 25.0
2020-Aug-13 21:07 138 25.0
2020-Aug-13 21:02 118 25.0
2020-Aug-13 20:59 130 0 gusting 3 25.0
2020-Aug-13 20:53 135 0 gusting 4 25.6
2020-Aug-13 20:49 143 0 gusting 4 25.6
2020-Aug-13 20:44 131 2 gusting 4 25.6
2020-Aug-13 20:39 102 0 gusting 2 25.6
2020-Aug-13 20:34 124 2 gusting 2 25.6
2020-Aug-13 20:28 142 25.6
2020-Aug-13 20:24 143 1 gusting 3 25.6
2020-Aug-13 20:19 134 1 gusting 4 25.6
2020-Aug-13 20:14 133 0 gusting 5 25.6
2020-Aug-13 20:09 127 1 gusting 5 25.6
2020-Aug-13 20:04 146 0 gusting 4 25.6
2020-Aug-13 19:59 177 0 gusting 4 25.6
2020-Aug-13 19:54 168 0 gusting 4 25.6
2020-Aug-13 19:49 101 2 gusting 3 25.6
2020-Aug-13 19:43 104 3 gusting 3 25.6
2020-Aug-13 19:39 147 0 gusting 4 25.6
2020-Aug-13 19:32 115 1 gusting 4 25.6
2020-Aug-13 19:29 101 2 gusting 4 25.6
2020-Aug-13 19:24 110 2 gusting 3 25.6
2020-Aug-13 19:18 092 26.1
2020-Aug-13 19:14 092 25.6
2020-Aug-13 19:09 095 1 gusting 5 25.0
2020-Aug-13 19:03 103 1 gusting 6 25.0
2020-Aug-13 18:59 133 3 gusting 6 25.0
2020-Aug-13 18:53 101 5 gusting 8 25.0
2020-Aug-13 18:50 099 6 gusting 8 25.0
2020-Aug-13 18:44 091 6 gusting 8 25.0
2020-Aug-13 18:39 089 5 gusting 6 25.0
2020-Aug-13 18:33 079 0 gusting 2 25.0
2020-Aug-13 18:28 096 0 gusting 4 25.0
2020-Aug-13 18:24 098 1 gusting 5 25.0
2020-Aug-13 18:19 108 3 gusting 5 25.0
2020-Aug-13 18:13 077 1 gusting 5 24.4
2020-Aug-13 18:09 070 0 gusting 8 24.4
2020-Aug-13 18:04 108 5 gusting 11 24.4
2020-Aug-13 17:57 109 8 gusting 12 24.4
2020-Aug-13 17:54 103 7 gusting 13 24.4
2020-Aug-13 17:49 105 9 gusting 13 24.4
2020-Aug-13 17:45 104 9 gusting 11 25.0
2020-Aug-13 17:38 099 6 gusting 9 25.0
2020-Aug-13 17:34 102 4 gusting 6 25.0
2020-Aug-13 17:28 052 2 gusting 4 25.0
2020-Aug-13 17:24 084 2 gusting 4 25.0
2020-Aug-13 17:19 088 2 gusting 4 25.0
2020-Aug-13 17:14 103 1 gusting 4 25.0
2020-Aug-13 17:08 080 0 gusting 2 25.6
2020-Aug-13 17:04 101 1 gusting 2 25.6
2020-Aug-13 16:59 110 25.6
2020-Aug-13 16:54 037 25.6
2020-Aug-13 16:49 037 25.6
2020-Aug-13 16:44 037 25.0
2020-Aug-13 16:39 026 25.0
2020-Aug-13 16:34 075 0 gusting 5 25.0
2020-Aug-13 16:29 319 1 gusting 6 25.0
2020-Aug-13 16:24 357 2 gusting 6 25.0
2020-Aug-13 16:19 030 2 gusting 6 25.0
2020-Aug-13 16:14 021 2 gusting 6 25.0
2020-Aug-13 16:09 029 3 gusting 6 25.0
2020-Aug-13 16:04 039 2 gusting 6 25.0
2020-Aug-13 15:59 041 0 gusting 4 24.4
2020-Aug-13 15:54 080 1 gusting 5 24.4
2020-Aug-13 15:49 083 2 gusting 6 25.0
2020-Aug-13 15:43 045 2 gusting 5 25.0
2020-Aug-13 15:37 077 2 gusting 4 25.0
2020-Aug-13 15:34 062 1 gusting 4 25.0
2020-Aug-13 15:29 084 1 gusting 3 25.0
2020-Aug-13 15:24 049 1 gusting 5 25.0
2020-Aug-13 15:19 041 0 gusting 6 25.0
2020-Aug-13 15:14 074 2 gusting 6 25.0
2020-Aug-13 15:09 056 1 gusting 4 24.4
2020-Aug-13 15:04 060 1 gusting 2 24.4
2020-Aug-13 14:59 075 0 gusting 3 24.4
2020-Aug-13 14:54 106 24.4
2020-Aug-13 14:48 264 24.4
2020-Aug-13 14:43 255 24.4
2020-Aug-13 14:39 283 24.4
2020-Aug-13 14:32 282 24.4
2020-Aug-13 14:29 282 24.4
2020-Aug-13 14:24 282 24.4
2020-Aug-13 14:18 293 24.4
2020-Aug-13 14:14 293 25.0
2020-Aug-13 14:09 275 0 gusting 1 25.0
2020-Aug-13 14:04 271 25.0
2020-Aug-13 13:59 272 25.0
2020-Aug-13 13:54 267 25.0
2020-Aug-13 13:49 261 25.0
2020-Aug-13 13:44 291 25.0
2020-Aug-13 13:39 242 24.4
2020-Aug-13 13:34 240 25.0
2020-Aug-13 13:28 200 25.0
2020-Aug-13 13:24 166 25.0
2020-Aug-13 13:19 171 24.4
2020-Aug-13 13:14 127 0 gusting 1 24.4
2020-Aug-13 13:09 131 24.4
2020-Aug-13 13:04 138 0 gusting 1 24.4
2020-Aug-13 13:00 155 0 gusting 2 24.4
2020-Aug-13 12:54 134 0 gusting 2 24.4
2020-Aug-13 12:49 144 24.4
2020-Aug-13 12:44 126 0 gusting 2 24.4
2020-Aug-13 12:38 129 24.4
2020-Aug-13 12:33 128 0 gusting 2 24.4
2020-Aug-13 12:29 102 0 gusting 2 24.4
2020-Aug-13 12:24 148 0 gusting 2 24.4
2020-Aug-13 12:19 148 24.4
2020-Aug-13 12:13 162 24.4
2020-Aug-13 12:09 133 0 gusting 2 24.4
2020-Aug-13 12:03 124 0 gusting 2 24.4
2020-Aug-13 11:59 120 0 gusting 2 24.4
2020-Aug-13 11:54 129 0 gusting 2 24.4
2020-Aug-13 11:49 129 24.4
2020-Aug-13 11:44 142 0 gusting 1 24.4
2020-Aug-13 11:39 120 0 gusting 1 23.9
2020-Aug-13 11:34 132 0 gusting 1 23.9
2020-Aug-13 11:29 120 23.9
2020-Aug-13 11:24 136 0 gusting 2 23.9
2020-Aug-13 11:18 111 0 gusting 2 24.4
2020-Aug-13 11:14 142 0 gusting 2 24.4
2020-Aug-13 11:09 129 0 gusting 2 24.4
2020-Aug-13 11:04 131 24.4
2020-Aug-13 10:59 164 0 gusting 1 24.4
2020-Aug-13 10:54 122 0 gusting 1 24.4
2020-Aug-13 10:49 134 0 gusting 1 24.4
2020-Aug-13 10:44 134 24.4
2020-Aug-13 10:38 144 24.4
2020-Aug-13 10:34 104 1 gusting 2 24.4
2020-Aug-13 10:29 127 1 gusting 4 24.4
2020-Aug-13 10:24 097 2 gusting 4 24.4
2020-Aug-13 10:19 107 2 gusting 3 24.4
2020-Aug-13 10:15 117 2 gusting 3 24.4
2020-Aug-13 10:10 090 2 gusting 3 24.4
2020-Aug-13 10:04 098 1 gusting 1 24.4
2020-Aug-13 09:58 098 24.4
2020-Aug-13 09:54 124 24.4
2020-Aug-13 09:49 130 24.4
2020-Aug-13 09:44 116 24.4
2020-Aug-13 09:39 149 24.4
2020-Aug-13 09:34 104 0 gusting 1 24.4
2020-Aug-13 09:29 110 0 gusting 1 24.4
2020-Aug-13 09:21 150 24.4
2020-Aug-13 09:19 136 24.4
2020-Aug-13 09:14 274 23.9
2020-Aug-13 09:09 274 23.9
2020-Aug-13 09:04 274 23.9
2020-Aug-13 08:59 274 23.9
2020-Aug-13 08:54 274 23.9
2020-Aug-13 08:49 274 23.9
2020-Aug-13 08:44 274 23.9
2020-Aug-13 08:39 274 23.9
2020-Aug-13 08:34 274 23.9
2020-Aug-13 08:29 274 23.9
2020-Aug-13 08:23 274 23.9
2020-Aug-13 08:19 274 23.9
2020-Aug-13 08:14 274 23.9
2020-Aug-13 08:09 274 23.9
2020-Aug-13 08:04 271 23.9
2020-Aug-13 07:59 273 23.9
2020-Aug-13 07:54 281 23.9
2020-Aug-13 07:49 279 23.9
2020-Aug-13 07:44 260 23.9
2020-Aug-13 07:39 280 0 gusting 2 23.9
2020-Aug-13 07:34 312 23.9
2020-Aug-13 07:29 315 0 gusting 3 23.9
2020-Aug-13 07:24 290 0 gusting 1 23.9
2020-Aug-13 07:19 221 23.9
2020-Aug-13 07:13 293 1 gusting 3 24.4
2020-Aug-13 07:09 271 1 gusting 2 24.4
2020-Aug-13 07:04 229 0 gusting 1 24.4
2020-Aug-13 06:58 236 0 gusting 2 24.4
2020-Aug-13 06:54 245 24.4
2020-Aug-13 06:49 272 24.4
2020-Aug-13 06:44 262 0 gusting 1 24.4
2020-Aug-13 06:39 269 24.4
2020-Aug-13 06:34 293 0 gusting 1 24.4
2020-Aug-13 06:29 285 24.4
2020-Aug-13 06:24 288 24.4
2020-Aug-13 06:19 280 24.4
2020-Aug-13 06:14 307 24.4
2020-Aug-13 06:09 276 1 gusting 2 24.4
2020-Aug-13 06:04 274 24.4
2020-Aug-13 05:59 316 0 gusting 1 25.0
2020-Aug-13 05:54 285 25.0
2020-Aug-13 05:49 319 25.0
2020-Aug-13 05:45 319 24.4
2020-Aug-13 05:39 326 24.4
2020-Aug-13 05:34 326 24.4
2020-Aug-13 05:29 326 24.4
2020-Aug-13 05:23 322 24.4
2020-Aug-13 05:19 302 24.4
2020-Aug-13 05:14 312 24.4
2020-Aug-13 05:08 304 24.4
2020-Aug-13 05:04 295 24.4
2020-Aug-13 04:59 297 24.4
2020-Aug-13 04:54 287 24.4
2020-Aug-13 04:49 291 24.4
2020-Aug-13 04:44 293 0 gusting 0 24.4
2020-Aug-13 04:39 283 24.4
2020-Aug-13 04:34 284 24.4
2020-Aug-13 04:29 285 24.4
2020-Aug-13 04:24 285 24.4
2020-Aug-13 04:18 285 24.4
2020-Aug-13 04:14 285 24.4
2020-Aug-13 04:09 306 0 gusting 2 24.4
2020-Aug-13 04:04 265 24.4
2020-Aug-13 03:59 284 24.4
2020-Aug-13 03:54 268 24.4
2020-Aug-13 03:49 264 25.0
2020-Aug-13 03:44 297 24.4
2020-Aug-13 03:39 290 24.4
2020-Aug-13 03:33 235 24.4
2020-Aug-13 03:29 295 0 gusting 5 25.0
2020-Aug-13 03:24 288 2 gusting 5 25.0
2020-Aug-13 03:19 299 2 gusting 4 25.0
2020-Aug-13 03:14 260 1 gusting 4 25.0
2020-Aug-13 03:09 274 0 gusting 4 25.0
2020-Aug-13 03:04 278 1 gusting 5 25.0
2020-Aug-13 02:59 284 1 gusting 5 25.0
2020-Aug-13 02:54 296 2 gusting 5 25.0
2020-Aug-13 02:49 311 25.0
2020-Aug-13 02:44 006 0 gusting 5 25.0
2020-Aug-13 02:39 287 1 gusting 5 25.0
2020-Aug-13 02:34 245 0 gusting 3 25.0
2020-Aug-13 02:29 292 0 gusting 5 25.6
2020-Aug-13 02:24 324 0 gusting 5 25.0
2020-Aug-13 02:19 288 1 gusting 4 25.0
2020-Aug-13 02:14 257 1 gusting 4 25.0
2020-Aug-13 02:09 248 1 gusting 4 25.0
2020-Aug-13 02:05 316 2 gusting 5 25.0
2020-Aug-13 01:59 259 2 gusting 5 25.0
2020-Aug-13 01:54 307 25.0
2020-Aug-13 01:49 293 25.0
2020-Aug-13 01:44 291 1 gusting 5 25.0
2020-Aug-13 01:39 289 1 gusting 5 25.0
2020-Aug-13 01:34 244 2 gusting 5 25.0
2020-Aug-13 01:29 212 1 gusting 4 25.0
2020-Aug-13 01:24 254 25.6
2020-Aug-13 01:19 283 0 gusting 1 25.6
2020-Aug-13 01:14 292 25.6
2020-Aug-13 01:09 299 0 gusting 3 25.6
2020-Aug-13 01:04 263 1 gusting 4 25.6
2020-Aug-13 00:59 286 2 gusting 5 25.6
2020-Aug-13 00:54 290 2 gusting 5 25.6
2020-Aug-13 00:49 255 1 gusting 5 25.6
2020-Aug-13 00:44 272 0 gusting 5 25.6
2020-Aug-13 00:39 308 3 gusting 6 25.6
2020-Aug-13 00:34 293 4 gusting 6 26.1
2020-Aug-13 00:29 292 5 gusting 6 26.1
2020-Aug-13 00:24 278 1 gusting 4 26.7
2020-Aug-13 00:19 335 26.7
2020-Aug-13 00:14 300 26.7
2020-Aug-13 00:09 315 0 gusting 4 26.7
2020-Aug-13 00:04 326 0 gusting 5 26.7
2020-Aug-12 23:59 328 26.7
2020-Aug-12 23:54 018 0 gusting 3 26.1
2020-Aug-12 23:49 015 0 gusting 3 26.1
2020-Aug-12 23:44 333 0 gusting 4 26.1
2020-Aug-12 23:39 315 0 gusting 4 26.1
2020-Aug-12 23:34 287 0 gusting 4 26.1
2020-Aug-12 23:29 324 0 gusting 4 26.1
2020-Aug-12 23:24 326 26.1
2020-Aug-12 23:19 308 1 gusting 5 26.1
2020-Aug-12 23:14 301 1 gusting 5 26.7
2020-Aug-12 23:09 297 0 gusting 4 26.7
2020-Aug-12 23:04 338 1 gusting 4 26.7
2020-Aug-12 22:59 293 0 gusting 3 26.7
2020-Aug-12 22:54 304 0 gusting 5 26.7
2020-Aug-12 22:49 283 1 gusting 5 26.1
2020-Aug-12 22:44 283 1 gusting 2 26.1
2020-Aug-12 22:38 338 0 gusting 4 26.1
2020-Aug-12 22:34 280 1 gusting 4 26.1
2020-Aug-12 22:29 295 1 gusting 3 26.1
2020-Aug-12 22:24 266 26.1
2020-Aug-12 22:19 302 0 gusting 3 26.1
2020-Aug-12 22:13 297 1 gusting 2 26.7
2020-Aug-12 22:09 285 0 gusting 2 26.7
2020-Aug-12 22:04 293 0 gusting 3 26.7
2020-Aug-12 21:59 347 0 gusting 3 26.7
2020-Aug-12 21:54 311 26.7
2020-Aug-12 21:49 276 0 gusting 3 26.7
2020-Aug-12 21:44 269 0 gusting 5 26.7
2020-Aug-12 21:39 330 1 gusting 6 26.7
2020-Aug-12 21:34 304 2 gusting 6 26.7
2020-Aug-12 21:29 283 3 gusting 6 27.2
2020-Aug-12 21:24 311 3 gusting 6 27.2
2020-Aug-12 21:19 291 0 gusting 4 27.2
2020-Aug-12 21:14 285 0 gusting 3 27.2
2020-Aug-12 21:09 253 27.2
2020-Aug-12 21:04 119 0 gusting 3 27.2
2020-Aug-12 20:59 096 3 gusting 3 26.7
2020-Aug-12 20:54 096 1 gusting 1 27.2
2020-Aug-12 20:49 094 0 gusting 1 27.2
2020-Aug-12 20:44 065 26.7
2020-Aug-12 20:39 303 26.7
2020-Aug-12 20:34 339 26.1
2020-Aug-12 20:29 357 0 gusting 6 26.1
2020-Aug-12 20:24 282 3 gusting 7 26.1
2020-Aug-12 20:19 268 5 gusting 7 26.1
2020-Aug-12 20:14 281 3 gusting 6 26.1
2020-Aug-12 20:09 289 2 gusting 6 26.7
2020-Aug-12 20:04 300 2 gusting 6 26.7
2020-Aug-12 19:59 304 0 gusting 7 26.7
2020-Aug-12 19:54 284 3 gusting 7 26.7
2020-Aug-12 19:49 347 2 gusting 7 26.7
2020-Aug-12 19:44 274 2 gusting 7 26.7
2020-Aug-12 19:39 261 0 gusting 4 27.8
2020-Aug-12 19:34 301 0 gusting 6 27.8
2020-Aug-12 19:29 271 2 gusting 6 27.8
2020-Aug-12 19:24 266 2 gusting 8 27.8
2020-Aug-12 19:19 215 3 gusting 8 27.8
2020-Aug-12 19:14 248 1 gusting 6 27.8
2020-Aug-12 19:09 248 1 gusting 5 27.8
2020-Aug-12 19:04 252 0 gusting 5 27.8
2020-Aug-12 18:59 269 1 gusting 6 27.8
2020-Aug-12 18:54 276 3 gusting 6 27.8
2020-Aug-12 18:49 252 0 gusting 6 27.2
2020-Aug-12 18:44 243 2 gusting 7 27.2
2020-Aug-12 18:39 210 4 gusting 7 27.2
2020-Aug-12 18:34 240 2 gusting 8 27.2
2020-Aug-12 18:29 253 3 gusting 9 27.2
2020-Aug-12 18:24 216 4 gusting 11 27.2
2020-Aug-12 18:19 262 5 gusting 11 27.2
2020-Aug-12 18:14 197 6 gusting 11 27.2
2020-Aug-12 18:09 239 5 gusting 10 27.2
2020-Aug-12 18:04 254 4 gusting 8 27.8
2020-Aug-12 17:59 219 1 gusting 10 27.8
2020-Aug-12 17:54 251 5 gusting 10 28.3
2020-Aug-12 17:49 196 2 gusting 6 28.3
2020-Aug-12 17:44 209 1 gusting 4 28.9
2020-Aug-12 17:39 063 0 gusting 6 28.9
2020-Aug-12 17:33 255 1 gusting 7 28.9
2020-Aug-12 17:29 117 2 gusting 6 28.9
2020-Aug-12 17:24 212 2 gusting 6 28.3
2020-Aug-12 17:19 175 2 gusting 5 28.9
2020-Aug-12 17:14 231 2 gusting 5 28.3
2020-Aug-12 17:09 171 1 gusting 4 28.3
2020-Aug-12 17:03 207 2 gusting 4 27.8
2020-Aug-12 16:59 127 2 gusting 4 27.8
2020-Aug-12 16:54 134 2 gusting 4 27.8
2020-Aug-12 16:49 127 2 gusting 4 27.8
2020-Aug-12 16:44 136 2 gusting 4 27.8
2020-Aug-12 16:39 130 1 gusting 3 27.8
2020-Aug-12 16:34 160 1 gusting 3 27.8
2020-Aug-12 16:29 133 1 gusting 3 27.8
2020-Aug-12 16:24 134 2 gusting 3 28.3
2020-Aug-12 16:19 129 1 gusting 4 28.9
2020-Aug-12 16:14 131 2 gusting 5 28.9
2020-Aug-12 16:08 169 1 gusting 5 28.9
2020-Aug-12 16:04 193 1 gusting 4 28.9
2020-Aug-12 15:58 122 1 gusting 4 28.9
2020-Aug-12 15:53 214 1 gusting 4 28.9
2020-Aug-12 15:49 202 1 gusting 4 28.9
2020-Aug-12 15:44 162 1 gusting 4 28.3
2020-Aug-12 15:39 162 1 gusting 6 28.3
2020-Aug-12 15:34 246 2 gusting 6 28.3
2020-Aug-12 15:29 198 1 gusting 4 28.3
2020-Aug-12 15:24 148 0 gusting 3 28.3
2020-Aug-12 15:19 233 1 gusting 3 28.3
2020-Aug-12 15:14 171 1 gusting 5 28.3
2020-Aug-12 15:08 128 1 gusting 3 28.3
2020-Aug-12 15:03 257 0 gusting 4 28.3
2020-Aug-12 14:59 196 0 gusting 5 28.3
2020-Aug-12 14:54 224 0 gusting 5 27.8
2020-Aug-12 14:49 206 2 gusting 6 27.8
2020-Aug-12 14:44 213 3 gusting 6 27.8
2020-Aug-12 14:39 143 0 gusting 4 27.8
2020-Aug-12 14:34 242 0 gusting 5 27.8
2020-Aug-12 14:29 131 1 gusting 5 27.8
2020-Aug-12 14:24 188 0 gusting 3 28.3
2020-Aug-12 14:19 215 0 gusting 2 28.3
2020-Aug-12 14:14 233 27.8
2020-Aug-12 14:09 178 1 gusting 3 27.8
2020-Aug-12 14:04 217 1 gusting 3 27.2
2020-Aug-12 13:59 215 0 gusting 2 26.7
2020-Aug-12 13:54 209 26.7
2020-Aug-12 13:49 285 0 gusting 3 26.1
2020-Aug-12 13:44 299 1 gusting 4 26.1
2020-Aug-12 13:38 284 0 gusting 5 25.6
2020-Aug-12 13:34 294 0 gusting 5 25.6
2020-Aug-12 13:29 301 2 gusting 6 25.6
2020-Aug-12 13:24 269 0 gusting 3 26.1
2020-Aug-12 13:19 129 25.6
2020-Aug-12 13:14 228 25.6
2020-Aug-12 13:09 278 25.6
2020-Aug-12 13:04 144 0 gusting 5 25.6
2020-Aug-12 12:59 203 1 gusting 5 25.6
2020-Aug-12 12:54 235 0 gusting 5 25.6
2020-Aug-12 12:49 258 1 gusting 5 25.6
2020-Aug-12 12:44 208 1 gusting 4 25.6
2020-Aug-12 12:38 238 0 gusting 4 25.6
2020-Aug-12 12:34 250 0 gusting 4 25.6
2020-Aug-12 12:29 232 25.6
2020-Aug-12 12:24 289 0 gusting 4 25.6
2020-Aug-12 12:19 263 0 gusting 3 25.6
2020-Aug-12 12:14 278 0 gusting 3 25.6
2020-Aug-12 12:09 230 0 gusting 1 25.6
2020-Aug-12 12:04 167 25.6
2020-Aug-12 11:59 293 25.6
2020-Aug-12 11:54 269 1 gusting 3 25.6
2020-Aug-12 11:49 258 25.6
2020-Aug-12 11:44 264 25.6
2020-Aug-12 11:39 281 25.6
2020-Aug-12 11:34 276 25.6
2020-Aug-12 11:30 282 25.6
2020-Aug-12 11:24 291 0 gusting 2 25.6
2020-Aug-12 11:19 268 0 gusting 3 25.6
2020-Aug-12 11:14 279 0 gusting 3 25.6
2020-Aug-12 11:09 276 1 gusting 3 25.6
2020-Aug-12 11:04 294 1 gusting 3 25.0
2020-Aug-12 10:59 276 1 gusting 4 25.0
2020-Aug-12 10:54 309 2 gusting 4 25.0
2020-Aug-12 10:49 287 0 gusting 3 25.0
2020-Aug-12 10:44 290 0 gusting 4 25.0
2020-Aug-12 10:38 289 2 gusting 3 25.0
2020-Aug-12 10:34 286 1 gusting 2 25.0
2020-Aug-12 10:29 284 25.0
2020-Aug-12 10:24 292 1 gusting 3 25.6
2020-Aug-12 10:19 262 0 gusting 2 25.0
2020-Aug-12 10:14 338 25.0
2020-Aug-12 10:09 013 25.6
2020-Aug-12 10:01 330 25.6
2020-Aug-12 09:59 329 25.6
2020-Aug-12 09:54 317 0 gusting 1 25.0
2020-Aug-12 09:49 067 25.0
2020-Aug-12 09:44 005 25.6
2020-Aug-12 09:39 338 25.6
2020-Aug-12 09:34 350 25.6
2020-Aug-12 09:29 310 25.6
2020-Aug-12 09:24 011 0 gusting 3 25.6
2020-Aug-12 09:19 354 0 gusting 3 25.6
2020-Aug-12 09:13 062 0 gusting 4 25.6
2020-Aug-12 09:09 065 25.6
2020-Aug-12 09:04 274 25.6
2020-Aug-12 08:59 292 0 gusting 2 25.6
2020-Aug-12 08:54 001 25.6
2020-Aug-12 08:49 326 0 gusting 3 25.0
2020-Aug-12 08:44 293 0 gusting 3 25.0
2020-Aug-12 08:39 322 25.0
2020-Aug-12 08:34 330 0 gusting 3 25.0
2020-Aug-12 08:29 331 0 gusting 3 25.0
2020-Aug-12 08:23 309 0 gusting 3 25.0
2020-Aug-12 08:19 024 25.0
2020-Aug-12 08:14 335 25.0
2020-Aug-12 08:08 333 24.4
2020-Aug-12 08:03 016 25.0
2020-Aug-12 07:59 297 25.0
2020-Aug-12 07:53 287 2 gusting 3 25.0
2020-Aug-12 07:49 285 0 gusting 4 25.0
2020-Aug-12 07:44 288 2 gusting 4 25.0
2020-Aug-12 07:39 293 2 gusting 5 25.0
2020-Aug-12 07:34 324 3 gusting 5 24.4
2020-Aug-12 07:29 281 3 gusting 6 24.4
2020-Aug-12 07:24 293 3 gusting 6 24.4
2020-Aug-12 07:18 300 4 gusting 6 24.4
2020-Aug-12 07:14 275 3 gusting 6 24.4
2020-Aug-12 07:08 298 3 gusting 6 24.4
2020-Aug-12 07:04 299 3 gusting 6 24.4